TimeMDT,TemperatureF,Dew PointF,Humidity,Sea Level PressureIn,VisibilityMPH,Wind Direction,Wind SpeedMPH,Gust SpeedMPH,PrecipitationIn,Events,Conditions,WindDirDegrees,DateUTC
12:15 AM,60.8,55.4,82,29.84,10.0,WSW,3.5,-,N/A,,Clear,250,2013-08-06 06:15:00
12:35 AM,60.8,53.6,77,29.84,10.0,SSW,4.6,-,N/A,,Clear,200,2013-08-06 06:35:00
1:15 AM,60.8,55.4,82,29.84,10.0,SSW,4.6,-,N/A,,Clear,210,2013-08-06 07:15:00
1:35 AM,60.8,53.6,77,29.83,10.0,West,3.5,-,N/A,,Clear,260,2013-08-06 07:35:00
1:55 AM,60.8,53.6,77,29.83,10.0,NNW,4.6,-,N/A,,Clear,330,2013-08-06 07:55:00
2:15 AM,60.8,53.6,77,29.83,10.0,NW,9.2,-,N/A,,Clear,310,2013-08-06 08:15:00
2:35 AM,60.8,53.6,77,29.83,10.0,WNW,11.5,-,N/A,,Clear,290,2013-08-06 08:35:00
2:55 AM,60.8,55.4,82,29.83,10.0,WNW,11.5,-,N/A,,Clear,290,2013-08-06 08:55:00
3:15 AM,60.8,55.4,82,29.83,10.0,WNW,13.8,-,N/A,,Clear,300,2013-08-06 09:15:00
3:35 AM,60.8,55.4,82,29.84,10.0,WNW,9.2,-,N/A,,Clear,300,2013-08-06 09:35:00
3:56 AM,60.8,55.4,82,29.85,10.0,WNW,11.5,17.3,N/A,,Clear,300,2013-08-06 09:56:00
4:15 AM,60.8,55.4,82,29.85,10.0,NW,19.6,25.3,N/A,,Clear,310,2013-08-06 10:15:00
4:35 AM,60.8,55.4,82,29.86,10.0,NW,16.1,21.9,N/A,,Clear,310,2013-08-06 10:35:00
4:55 AM,59.0,55.4,88,29.87,10.0,WNW,13.8,21.9,N/A,,Clear,300,2013-08-06 10:55:00
5:15 AM,59.0,55.4,88,29.87,10.0,WNW,8.1,-,N/A,,Clear,300,2013-08-06 11:15:00
5:35 AM,57.2,53.6,88,29.88,10.0,West,6.9,-,N/A,,Clear,280,2013-08-06 11:35:00
5:55 AM,57.2,53.6,88,29.88,10.0,WNW,5.8,-,N/A,,Clear,300,2013-08-06 11:55:00
6:15 AM,57.2,55.4,94,29.88,10.0,WNW,5.8,-,N/A,,Clear,300,2013-08-06 12:15:00
6:35 AM,59.0,55.4,88,29.89,10.0,NW,6.9,-,N/A,,Clear,310,2013-08-06 12:35:00
6:55 AM,60.8,55.4,82,29.89,10.0,NW,12.7,-,N/A,,Clear,320,2013-08-06 12:55:00
7:15 AM,60.8,55.4,82,29.90,10.0,WNW,11.5,16.1,N/A,,Clear,290,2013-08-06 13:15:00
7:35 AM,62.6,55.4,77,29.91,10.0,WNW,15.0,18.4,N/A,,Clear,290,2013-08-06 13:35:00
7:55 AM,62.6,55.4,77,29.92,10.0,WNW,15.0,20.7,N/A,,Clear,290,2013-08-06 13:55:00
8:15 AM,62.6,55.4,77,29.92,10.0,NW,15.0,23.0,N/A,,Clear,310,2013-08-06 14:15:00
8:55 AM,66.2,55.4,68,29.93,10.0,WNW,18.4,24.2,N/A,,Partly Cloudy,300,2013-08-06 14:55:00
9:15 AM,66.2,55.4,68,29.94,10.0,NW,18.4,27.6,N/A,,Partly Cloudy,310,2013-08-06 15:15:00
9:35 AM,68.0,55.4,64,29.94,10.0,WNW,18.4,25.3,N/A,,Partly Cloudy,300,2013-08-06 15:35:00
9:55 AM,66.2,55.4,68,29.94,10.0,NW,18.4,25.3,N/A,,Scattered Clouds,320,2013-08-06 15:55:00
10:15 AM,68.0,55.4,64,29.94,10.0,NW,15.0,27.6,N/A,,Scattered Clouds,310,2013-08-06 16:15:00
10:35 AM,69.8,55.4,60,29.94,10.0,NW,15.0,26.5,N/A,,Scattered Clouds,310,2013-08-06 16:35:00
10:55 AM,69.8,55.4,60,29.94,10.0,NW,17.3,24.2,N/A,,Scattered Clouds,310,2013-08-06 16:55:00
11:15 AM,69.8,55.4,60,29.94,10.0,NW,17.3,23.0,N/A,,Scattered Clouds,320,2013-08-06 17:15:00
11:35 AM,71.6,55.4,57,29.94,10.0,NW,19.6,26.5,N/A,,Scattered Clouds,320,2013-08-06 17:35:00
11:55 AM,71.6,55.4,57,29.94,10.0,NW,19.6,27.6,N/A,,Partly Cloudy,310,2013-08-06 17:55:00
12:15 PM,73.4,53.6,50,29.95,10.0,NW,16.1,26.5,N/A,,Clear,310,2013-08-06 18:15:00
12:35 PM,73.4,53.6,50,29.94,10.0,NW,17.3,23.0,N/A,,Clear,310,2013-08-06 18:35:00
12:55 PM,75.2,53.6,47,29.94,10.0,NW,17.3,27.6,N/A,,Clear,310,2013-08-06 18:55:00
1:15 PM,75.2,53.6,47,29.94,10.0,NW,17.3,23.0,N/A,,Clear,310,2013-08-06 19:15:00
2:35 PM,77.0,55.4,47,29.94,10.0,WNW,16.1,19.6,N/A,,Clear,300,2013-08-06 20:35:00
2:55 PM,77.0,53.6,44,29.93,10.0,NW,15.0,21.9,N/A,,Partly Cloudy,310,2013-08-06 20:55:00
3:15 PM,75.2,51.8,44,29.93,10.0,WNW,16.1,24.2,N/A,,Partly Cloudy,290,2013-08-06 21:15:00
3:35 PM,78.8,53.6,42,29.93,10.0,West,15.0,25.3,N/A,,Mostly Cloudy,280,2013-08-06 21:35:00
3:55 PM,75.2,53.6,47,29.93,10.0,WNW,12.7,-,N/A,,Mostly Cloudy,290,2013-08-06 21:55:00
4:15 PM,78.8,53.6,42,29.92,10.0,West,15.0,20.7,N/A,,Scattered Clouds,270,2013-08-06 22:15:00
4:55 PM,77.0,53.6,44,29.91,10.0,WNW,12.7,-,N/A,,Mostly Cloudy,290,2013-08-06 22:55:00
5:15 PM,77.0,53.6,44,29.91,10.0,NW,8.1,-,N/A,,Mostly Cloudy,310,2013-08-06 23:15:00
5:35 PM,78.8,51.8,39,29.92,10.0,WNW,13.8,-,N/A,,Mostly Cloudy,290,2013-08-06 23:35:00
5:55 PM,78.8,50.0,36,29.92,10.0,West,15.0,23.0,N/A,,Partly Cloudy,280,2013-08-06 23:55:00
6:15 PM,78.8,50.0,36,29.91,10.0,West,18.4,-,N/A,,Clear,280,2013-08-07 00:15:00
6:35 PM,77.0,50.0,39,29.92,10.0,West,16.1,23.0,N/A,,Clear,280,2013-08-07 00:35:00
6:55 PM,75.2,48.2,38,29.92,10.0,WNW,15.0,23.0,N/A,,Clear,300,2013-08-07 00:55:00
7:15 PM,68.0,53.6,60,29.94,10.0,North,20.7,34.5,N/A,,Mostly Cloudy,350,2013-08-07 01:15:00
7:35 PM,66.2,53.6,64,29.95,10.0,North,17.3,-,N/A,,Mostly Cloudy,360,2013-08-07 01:35:00
7:55 PM,66.2,53.6,64,29.96,10.0,North,13.8,-,N/A,,Mostly Cloudy,360,2013-08-07 01:55:00
8:15 PM,64.4,53.6,68,29.96,10.0,North,10.4,-,N/A,,Mostly Cloudy,10,2013-08-07 02:15:00
8:35 PM,64.4,53.6,68,29.97,10.0,NNW,6.9,-,N/A,,Overcast,340,2013-08-07 02:35:00
8:55 PM,62.6,53.6,72,29.98,10.0,NW,3.5,-,N/A,,Mostly Cloudy,320,2013-08-07 02:55:00
9:15 PM,60.8,51.8,72,29.98,10.0,Calm,Calm,-,N/A,,Clear,0,2013-08-07 03:15:00
9:35 PM,60.8,51.8,72,29.99,10.0,Calm,Calm,-,N/A,,Mostly Cloudy,0,2013-08-07 03:35:00
10:35 PM,57.2,53.6,88,30.00,10.0,NNW,10.4,-,N/A,,Scattered Clouds,330,2013-08-07 04:35:00
11:15 PM,59.0,53.6,82,30.01,10.0,NNW,11.5,-,N/A,,Clear,330,2013-08-07 05:15:00